Regional Weather Roundup
Issued by NWS

Home | Current Version | Previous Version | Text Only | Print | Product List | Glossary Off
Versions: 1 2 3 4 5 6 7 8 9 10 11 12 13 14 15 16 17 18 19 20 21 22 23 24 25 26 27 28 29 30 31 32 33 34 35 36 37 38 39 40 41 42 43 44 45 46 47 48 49 50

000
ASUS43 KLMK 031302
RWRKY
KENTUCKY REGIONAL WEATHER ROUNDUP
NATIONAL WEATHER SERVICE LOUISVILLE KY
800 AM EST TUE MAR 03 2015

NOTE "FAIR" INDICATES FEW OR NO CLOUDS BELOW 12,000 FEET
WITH NO SIGNIFICANT WEATHER AND/OR OBSTRUCTIONS TO VISIBILITY.

KYZ001>023-026-027-061>063-070>075-031400-
WESTERN AND SOUTH CENTRAL KENTUCKY

CITY           SKY/WX    TMP DP  RH WIND       PRES   REMARKS
PADUCAH        CLOUDY    37  35  92 S3        30.02F FOG
HENDERSON      CLOUDY    36  27  69 SE6       30.03F WCI  31
OWENSBORO      CLOUDY    37  30  76 S9        30.05F HAZE    WCI  30
HOPKINSVILLE   CLOUDY    43  36  75 SE7       30.07F
BOWLING GREEN  CLOUDY    42  32  67 CALM      30.11S
GLASGOW        NOT AVBL
$$

KYZ024-025-028>034-038-045-046-053-031400-
NORTH CENTRAL KENTUCKY

CITY           SKY/WX    TMP DP  RH WIND       PRES   REMARKS
LOUISVILLE/SDF CLOUDY    34  24  67 SE8       30.08F WCI  27
LOUISVILLE/LOU CLOUDY    35  23  61 CALM      30.09F
FORT KNOX      CLOUDY    34  24  67 SE6       30.05S WCI  29
$$

KYZ035>037-039>044-047>052-055>060-089>105-031400-
NORTHEAST KENTUCKY

CITY           SKY/WX    TMP DP  RH WIND       PRES   REMARKS
LEXINGTON      CLOUDY    33  23  66 SE9       30.09F WCI  25
COVINGTON      CLOUDY    31  20  63 S8        30.08F WCI  23
FRANKFORT      CLOUDY    33  23  66 SE6       30.08F WCI  28
$$

KYZ054-064>069-076>088-106>120-031400-
SOUTHEAST KENTUCKY

CITY           SKY/WX    TMP DP  RH WIND       PRES   REMARKS
JACKSON        CLOUDY    32  22  66 CALM      30.15R
LONDON         CLOUDY    38  25  59 CALM      30.13F
SOMERSET       NOT AVBL
MIDDLESBORO    CLOUDY    38  34  86 CALM      30.19R
MONTICELLO     CLOUDY    42  36  79 CALM      30.14F
$$



USA.gov is the U.S. government's official web portal to all federal, state and local government web resources and services.